TimeCST,TemperatureF,Dew PointF,Humidity,Sea Level PressureIn,VisibilityMPH,Wind Direction,Wind SpeedMPH,Gust SpeedMPH,PrecipitationIn,Events,Conditions,WindDirDegrees,DateUTC
12:15 AM,21.6,21.2,99,30.41,5.0,Calm,Calm,-,N/A,,Clear,0,2013-01-07 06:15:00
12:35 AM,20.3,19.6,97,30.41,4.0,Calm,Calm,-,N/A,,Clear,0,2013-01-07 06:35:00
12:55 AM,19.0,18.3,97,30.42,4.0,SSW,3.5,-,N/A,,Clear,210,2013-01-07 06:55:00
1:15 AM,18.9,18.3,98,30.42,4.0,SW,3.5,-,N/A,,Clear,220,2013-01-07 07:15:00
1:35 AM,19.0,18.5,98,30.42,5.0,Calm,Calm,-,N/A,,Clear,0,2013-01-07 07:35:00
1:55 AM,19.0,18.3,97,30.42,4.0,Calm,Calm,-,N/A,,Clear,0,2013-01-07 07:55:00
2:15 AM,19.0,18.5,98,30.42,5.0,Calm,Calm,-,N/A,,Clear,0,2013-01-07 08:15:00
2:35 AM,19.6,18.9,97,30.42,5.0,Calm,Calm,-,N/A,,Clear,0,2013-01-07 08:35:00
2:55 AM,18.9,18.1,97,30.43,4.0,Calm,Calm,-,N/A,,Clear,0,2013-01-07 08:55:00
3:15 AM,18.9,18.3,98,30.43,4.0,Calm,Calm,-,N/A,,Clear,0,2013-01-07 09:15:00
3:35 AM,18.9,18.3,98,30.43,4.0,Calm,Calm,-,N/A,,Clear,0,2013-01-07 09:35:00
3:55 AM,18.7,18.1,98,30.43,4.0,Calm,Calm,-,N/A,,Clear,0,2013-01-07 09:55:00
4:15 AM,18.0,17.2,97,30.43,3.0,Calm,Calm,-,N/A,,Clear,0,2013-01-07 10:15:00
4:35 AM,18.7,18.3,98,30.43,4.0,Calm,Calm,-,N/A,,Clear,0,2013-01-07 10:35:00
4:55 AM,18.5,18.1,98,30.43,4.0,Calm,Calm,-,N/A,,Clear,0,2013-01-07 10:55:00
5:15 AM,19.0,18.7,98,30.42,3.0,Calm,Calm,-,N/A,,Clear,0,2013-01-07 11:15:00
5:35 AM,19.0,18.5,98,30.42,4.0,SE,3.5,-,N/A,,Clear,130,2013-01-07 11:35:00
5:55 AM,17.2,16.5,97,30.43,4.0,Calm,Calm,-,N/A,,Clear,0,2013-01-07 11:55:00
6:15 AM,16.7,16.2,98,30.44,4.0,Calm,Calm,-,N/A,,Clear,0,2013-01-07 12:15:00
6:35 AM,18.5,18.0,98,30.44,3.0,Calm,Calm,-,N/A,,Clear,0,2013-01-07 12:35:00
6:55 AM,17.6,16.9,97,30.44,4.0,Calm,Calm,-,N/A,,Clear,0,2013-01-07 12:55:00
7:35 AM,18.1,17.4,97,30.44,2.5,Calm,Calm,-,N/A,,Clear,0,2013-01-07 13:35:00
7:55 AM,19.2,18.5,97,30.45,2.5,Calm,Calm,-,N/A,,Clear,0,2013-01-07 13:55:00
8:15 AM,21.6,21.2,99,30.45,3.0,South,4.6,-,N/A,,Clear,180,2013-01-07 14:15:00
8:35 AM,23.4,23.0,99,30.45,3.0,South,5.8,-,N/A,,Clear,180,2013-01-07 14:35:00
8:55 AM,24.8,24.4,99,30.46,4.0,South,5.8,-,N/A,,Clear,170,2013-01-07 14:55:00
9:15 AM,25.7,25.7,100,30.46,5.0,South,9.2,-,N/A,,Clear,190,2013-01-07 15:15:00
9:35 AM,26.6,26.6,100,30.46,5.0,SSE,9.2,-,N/A,,Clear,160,2013-01-07 15:35:00
9:55 AM,27.9,27.3,98,30.45,7.0,SSE,13.8,-,N/A,,Clear,160,2013-01-07 15:55:00
10:15 AM,29.8,26.6,88,30.45,7.0,South,12.7,-,N/A,,Clear,170,2013-01-07 16:15:00
10:55 AM,31.6,25.9,79,30.42,10.0,SSE,15.0,-,N/A,,Unknown,160,2013-01-07 16:55:00
11:15 AM,32.0,25.7,78,30.41,10.0,South,13.8,-,N/A,,Unknown,170,2013-01-07 17:15:00
11:35 AM,32.5,26.4,78,30.40,10.0,South,10.4,-,N/A,,Unknown,170,2013-01-07 17:35:00
11:55 AM,33.4,27.0,77,30.38,10.0,South,12.7,-,N/A,,Unknown,170,2013-01-07 17:55:00
12:15 PM,33.4,26.4,75,30.36,10.0,SSE,13.8,-,N/A,,Unknown,160,2013-01-07 18:15:00
12:35 PM,34.2,27.0,75,30.35,10.0,South,15.0,-,N/A,,Unknown,180,2013-01-07 18:35:00
12:55 PM,34.9,27.1,73,30.34,10.0,South,16.1,-,N/A,,Unknown,180,2013-01-07 18:55:00
1:15 PM,34.9,26.6,72,30.33,10.0,South,15.0,-,N/A,,Unknown,180,2013-01-07 19:15:00
1:35 PM,35.2,26.8,71,30.32,10.0,South,11.5,-,N/A,,Clear,180,2013-01-07 19:35:00
1:55 PM,35.4,26.6,70,30.32,10.0,South,11.5,-,N/A,,Clear,170,2013-01-07 19:55:00
2:15 PM,35.6,27.0,71,30.31,10.0,South,10.4,-,N/A,,Clear,190,2013-01-07 20:15:00
2:35 PM,35.8,28.0,73,30.30,10.0,South,9.2,-,N/A,,Clear,170,2013-01-07 20:35:00
2:55 PM,36.0,27.5,71,30.31,10.0,South,11.5,-,N/A,,Clear,180,2013-01-07 20:55:00
3:15 PM,35.6,27.1,71,30.30,10.0,South,8.1,-,N/A,,Clear,170,2013-01-07 21:15:00
3:35 PM,35.2,27.9,74,30.29,10.0,SSE,9.2,-,N/A,,Clear,150,2013-01-07 21:35:00
3:55 PM,34.7,27.5,75,30.29,10.0,SSE,8.1,-,N/A,,Clear,160,2013-01-07 21:55:00
4:15 PM,33.8,27.9,79,30.28,10.0,SSE,8.1,-,N/A,,Clear,150,2013-01-07 22:15:00
4:35 PM,32.4,27.5,82,30.28,10.0,SSE,8.1,-,N/A,,Clear,160,2013-01-07 22:35:00
4:55 PM,32.0,27.0,82,30.27,10.0,SSE,6.9,-,N/A,,Clear,150,2013-01-07 22:55:00
5:15 PM,30.4,26.6,86,30.27,10.0,South,5.8,-,N/A,,Clear,170,2013-01-07 23:15:00
5:35 PM,30.6,25.9,83,30.28,10.0,South,3.5,-,N/A,,Clear,180,2013-01-07 23:35:00
5:55 PM,30.9,26.2,83,30.27,10.0,Calm,Calm,-,N/A,,Clear,0,2013-01-07 23:55:00
6:15 PM,29.8,25.9,85,30.27,10.0,Calm,Calm,-,N/A,,Clear,0,2013-01-08 00:15:00
6:35 PM,28.4,25.3,88,30.26,7.0,SSE,8.1,-,N/A,,Clear,160,2013-01-08 00:35:00
6:55 PM,28.8,25.9,89,30.25,7.0,SSE,8.1,-,N/A,,Clear,160,2013-01-08 00:55:00
7:15 PM,29.1,25.9,88,30.24,7.0,SSE,6.9,-,N/A,,Clear,160,2013-01-08 01:15:00
7:35 PM,29.5,26.2,88,30.25,7.0,Calm,Calm,-,N/A,,Clear,0,2013-01-08 01:35:00
7:55 PM,28.9,25.3,86,30.25,7.0,SSW,4.6,-,N/A,,Clear,210,2013-01-08 01:55:00
8:15 PM,28.2,25.0,88,30.25,7.0,South,5.8,-,N/A,,Clear,190,2013-01-08 02:15:00
8:35 PM,28.6,25.9,90,30.24,7.0,South,4.6,-,N/A,,Clear,170,2013-01-08 02:35:00
8:55 PM,27.3,24.8,90,30.24,7.0,South,5.8,-,N/A,,Clear,180,2013-01-08 02:55:00
9:15 PM,27.3,24.8,90,30.23,7.0,South,5.8,-,N/A,,Clear,170,2013-01-08 03:15:00
9:35 PM,27.3,25.0,91,30.23,7.0,SSE,4.6,-,N/A,,Clear,160,2013-01-08 03:35:00
9:55 PM,25.5,23.5,92,30.22,5.0,SSE,4.6,-,N/A,,Clear,160,2013-01-08 03:55:00
10:15 PM,24.6,23.5,96,30.23,5.0,South,3.5,-,N/A,,Clear,190,2013-01-08 04:15:00
10:35 PM,25.5,24.3,95,30.23,5.0,SSW,5.8,-,N/A,,Clear,200,2013-01-08 04:35:00
10:55 PM,25.3,24.3,96,30.22,5.0,South,5.8,-,N/A,,Clear,170,2013-01-08 04:55:00
11:15 PM,24.8,23.9,96,30.23,5.0,South,6.9,-,N/A,,Clear,180,2013-01-08 05:15:00
11:35 PM,28.0,25.9,92,30.22,7.0,South,9.2,-,N/A,,Clear,180,2013-01-08 05:35:00
11:55 PM,28.2,25.7,90,30.21,7.0,South,9.2,-,N/A,,Clear,180,2013-01-08 05:55:00